EW4560 Weather Reports


time (UTC)temp
C
wind
direction
speed
KPH
gust
KPH
rain 1hr
cm
rain 24hr
cm
rain mn
cm
humidity
%
barometer
mb
20260906223524 32 115 1.6 6.4 0.00 0.00 0.00 31 1016.1
20260906223020 32 65 3.2 6.4 0.00 0.00 0.00 30 1016.2
20260906222520 32 151 1.6 9.7 0.00 0.00 0.00 30 1016.2
20260906222019 32 101 3.2 9.7 0.00 0.00 0.00 30 1016.3
20260906221521 32 100 1.6 6.4 0.00 0.00 0.00 30 1016.5
20260906221017 31 42 1.6 6.4 0.00 0.00 0.00 30 1016.7
20260906220518 31 67 1.6 6.4 0.00 0.00 0.00 30 1016.7
20260906220017 31 127 0.0 4.8 0.00 0.00 0.00 31 1016.7
20260906215516 31 122 1.6 6.4 0.00 0.00 0.00 30 1016.7
20260906215017 32 99 3.2 6.4 0.00 0.00 0.00 29 1016.9
20260906214516 32 133 1.6 9.7 0.00 0.00 0.00 29 1016.9
20260906214024 32 131 3.2 11.3 0.00 0.00 0.00 29 1017.0
20260906214017 32 131 1.6 9.7 0.00 0.00 0.00 30 1016.9
20260906213022 32 34 3.2 12.9 0.00 0.00 0.00 31 1017.1
20260906213016 32 78 3.2 11.3 0.00 0.00 0.00 30 1017.1
20260906212014 32 313 3.2 12.9 0.00 0.00 0.00 31 1017.1
20260906211515 32 63 1.6 8.0 0.00 0.00 0.00 32 1017.3
20260906211014 32 30 3.2 6.4 0.00 0.00 0.00 31 1017.3
20260906210513 32 120 1.6 6.4 0.00 0.00 0.00 31 1017.4
20260906210013 31 62 1.6 6.4 0.00 0.00 0.00 31 1017.5
20260906205514 31 68 3.2 8.0 0.00 0.00 0.00 31 1017.6
20260906205013 31 25 1.6 8.0 0.00 0.00 0.00 31 1017.6
20260906204513 31 124 1.6 8.0 0.00 0.00 0.00 32 1017.7
20260906204013 31 35 3.2 8.0 0.00 0.00 0.00 32 1017.8
20260906203513 31 355 1.6 8.0 0.00 0.00 0.00 32 1018.0
20260906203018 30 105 1.6 9.7 0.00 0.00 0.00 32 1018.0
20260906203014 31 36 1.6 9.7 0.00 0.00 0.00 32 1018.0
20260906202018 30 345 1.6 11.3 0.00 0.00 0.00 32 1018.2
20260906202014 30 345 3.2 11.3 0.00 0.00 0.00 32 1018.1
20260906201013 30 306 1.6 8.0 0.00 0.00 0.00 32 1018.2
20260906200514 30 92 3.2 9.7 0.00 0.00 0.00 32 1018.3
20260906200013 30 12 3.2 9.7 0.00 0.00 0.00 32 1018.3
20260906195513 30 330 1.6 9.7 0.00 0.00 0.00 33 1018.3
20260906195014 30 302 3.2 9.7 0.00 0.00 0.00 32 1018.4
20260906194513 30 32 1.6 8.0 0.00 0.00 0.00 33 1018.6
20260906194018 29 337 1.6 8.0 0.00 0.00 0.00 35 1018.8
20260906194013 29 27 1.6 8.0 0.00 0.00 0.00 34 1018.7
20260906193012 29 19 1.6 8.0 0.00 0.00 0.00 36 1018.9
20260906192514 28 327 1.6 6.4 0.00 0.00 0.00 37 1019.0
20260906192013 28 76 1.6 6.4 0.00 0.00 0.00 37 1019.0
20260906191513 28 52 3.2 9.7 0.00 0.00 0.00 37 1019.1
20260906191013 28 17 3.2 9.7 0.00 0.00 0.00 38 1019.3
20260906190514 28 63 3.2 6.4 0.00 0.00 0.00 38 1019.3
20260906190018 28 356 0.0 6.4 0.00 0.00 0.00 37 1019.5
20260906190014 28 325 1.6 6.4 0.00 0.00 0.00 37 1019.4
20260906185013 28 33 1.6 6.4 0.00 0.00 0.00 37 1019.6
20260906184509 28 103 1.6 6.4 0.00 0.00 0.00 38 1019.7
20260906184008 28 56 1.6 6.4 0.00 0.00 0.00 37 1019.9
20260906183510 28 140 1.6 8.0 0.00 0.00 0.00 38 1020.0
20260906183506 28 101 1.6 8.0 0.00 0.00 0.00 38 1019.9
20260906182504 28 42 1.6 8.0 0.00 0.00 0.00 39 1020.1
20260906182002 28 41 1.6 8.0 0.00 0.00 0.00 37 1020.2
20260906181506 27 60 1.6 8.0 0.00 0.00 0.00 39 1020.4
20260906181500 27 97 1.6 6.4 0.00 0.00 0.00 38 1020.3
20260906180503 27 49 1.6 8.0 0.00 0.00 0.00 40 1020.6
20260906180458 27 336 1.6 6.4 0.00 0.00 0.00 41 1020.7
20260906175456 27 25 1.6 6.4 0.00 0.00 0.00 41 1020.6
20260906175001 26 48 1.6 6.4 0.00 0.00 0.00 43 1020.8
20260906174955 26 54 1.6 4.8 0.00 0.00 0.00 42 1020.8
20260906173955 26 335 1.6 6.4 0.00 0.00 0.00 43 1020.9
20260906173457 26 52 1.6 6.4 0.00 0.00 0.00 42 1021.0
20260906172958 26 321 1.6 6.4 0.00 0.00 0.00 44 1021.3
20260906172953 26 122 1.6 6.4 0.00 0.00 0.00 42 1021.2
20260906171951 26 120 1.6 3.2 0.00 0.00 0.00 44 1021.4
20260906171452 25 30 1.6 4.8 0.00 0.00 0.00 43 1021.5
20260906171110 25 63 1.6 6.4 0.00 0.00 0.00 44 1021.7
20260906170958 25 39 0.0 6.4 0.00 0.00 0.00 44 1021.6
20260906170951 25 103 1.6 6.4 0.00 0.00 0.00 44 1021.5
20260906165452 25 41 1.6 6.4 0.00 0.00 0.00 44 1021.7
20260906164951 25 82 0.0 3.2 0.00 0.00 0.00 44 1021.9
20260906164452 25 162 1.6 3.2 0.00 0.00 0.00 44 1022.0
20260906163951 25 289 0.0 3.2 0.00 0.00 0.00 44 1021.9
20260906163450 25 154 0.0 3.2 0.00 0.00 0.00 44 1021.9
20260906162950 24 145 0.0 3.2 0.00 0.00 0.00 45 1021.9
20260906162450 24 144 0.0 3.2 0.00 0.00 0.00 46 1022.0
20260906161948 23 89 0.0 3.2 0.00 0.00 0.00 48 1022.0
20260906161447 23 116 0.0 3.2 0.00 0.00 0.00 48 1021.9
20260906160948 23 148 0.0 3.2 0.00 0.00 0.00 48 1022.0
20260906160454 23 149 0.0 1.6 0.00 0.00 0.00 49 1022.0
20260906160447 23 155 0.0 1.6 0.00 0.00 0.00 49 1022.0
20260906155446 23 140 0.0 1.6 0.00 0.00 0.00 51 1022.0
20260906154944 22 311 0.0 1.6 0.00 0.00 0.00 52 1022.0
20260906154444 22 357 0.0 1.6 0.00 0.00 0.00 52 1022.0
20260906153943 22 150 0.0 1.6 0.00 0.00 0.00 54 1022.0
20260906153443 22 145 0.0 1.6 0.00 0.00 0.00 54 1021.9
20260906152943 21 147 0.0 1.6 0.00 0.00 0.00 55 1021.9
20260906152448 21 138 0.0 0.0 0.00 0.00 0.00 57 1022.1
20260906152444 21 78 0.0 1.6 0.00 0.00 0.00 56 1021.9
20260906151444 21 141 0.0 0.0 0.00 0.00 0.00 58 1022.1
20260906150948 20 144 0.0 0.0 0.00 0.00 0.00 62 1022.1
20260906150944 20 144 0.0 0.0 0.00 0.00 0.00 60 1022.0
20260906145944 20 144 0.0 1.6 0.00 0.00 0.00 61 1022.1
20260906145442 19 144 0.0 1.6 0.00 0.00 0.00 63 1022.1
20260906144941 19 224 0.0 1.6 0.00 0.00 0.00 64 1022.1
20260906144441 19 224 0.0 1.6 0.00 0.00 0.00 65 1022.0
20260906143942 19 224 0.0 0.0 0.00 0.00 0.00 66 1022.1
20260906143441 18 224 0.0 0.0 0.00 0.00 0.00 67 1022.1
20260906142942 18 314 0.0 0.0 0.00 0.00 0.00 68 1022.1
20260906142442 18 313 0.0 0.0 0.00 0.00 0.00 67 1022.1
20260906141941 18 313 0.0 0.0 0.00 0.00 0.00 68 1022.1
20260906141441 17 313 0.0 0.0 0.00 0.00 0.00 69 1022.1
20260906140941 17 313 0.0 0.0 0.00 0.00 0.00 69 1022.1
20260906140440 17 313 0.0 0.0 0.00 0.00 0.00 70 1022.2
20260906135945 16 313 0.0 0.0 0.00 0.00 0.00 73 1022.2
20260906135939 16 313 0.0 0.0 0.00 0.00 0.00 71 1022.2
20260906135557 16 313 0.0 0.0 0.00 0.00 0.00 73 1022.2
20260906134439 15 313 0.0 0.0 0.00 0.00 0.00 73 1022.2
20260906133940 15 313 0.0 0.0 0.00 0.00 0.00 74 1022.2
20260906133439 15 313 0.0 0.0 0.00 0.00 0.00 76 1022.1
20260906132940 15 313 0.0 0.0 0.00 0.00 0.00 77 1022.1
20260906132439 15 313 0.0 0.0 0.00 0.00 0.00 78 1022.0
20260906131939 14 313 0.0 0.0 0.00 0.00 0.00 78 1022.0
20260906131438 14 313 0.0 0.0 0.00 0.00 0.00 78 1021.9
20260906130938 14 313 0.0 0.0 0.00 0.00 0.00 77 1021.9
20260906130436 14 313 0.0 0.0 0.00 0.00 0.00 77 1021.6
20260906125938 14 313 0.0 0.0 0.00 0.00 0.00 76 1021.5
20260906125438 14 313 0.0 0.0 0.00 0.00 0.00 76 1021.5
20260906124935 14 313 0.0 0.0 0.00 0.00 0.00 75 1021.5
20260906124435 15 313 0.0 0.0 0.00 0.00 0.00 75 1021.4
20260906123935 15 313 0.0 0.0 0.00 0.00 0.00 75 1021.4
20260906123436 15 313 0.0 0.0 0.00 0.00 0.00 75 1021.3
20260906122934 15 313 0.0 0.0 0.00 0.00 0.00 74 1021.3
20260906122434 15 313 0.0 0.0 0.00 0.00 0.00 73 1021.4
20260906121939 15 313 0.0 0.0 0.00 0.00 0.00 74 1021.5
20260906121935 15 313 0.0 0.0 0.00 0.00 0.00 74 1021.4
20260906121552 15 313 0.0 0.0 0.00 0.00 0.00 73 1021.5
20260906120439 15 313 0.0 0.0 0.00 0.00 0.00 72 1021.6
20260906120435 15 313 0.0 0.0 0.00 0.00 0.00 73 1021.4
20260906115434 15 313 0.0 0.0 0.00 0.00 0.00 71 1021.6
20260906114938 16 313 0.0 0.0 0.00 0.00 0.00 70 1021.5
20260906114934 15 313 0.0 0.0 0.00 0.00 0.00 71 1021.6
20260906113933 16 313 0.0 0.0 0.00 0.00 0.00 70 1021.6
20260906113431 16 313 0.0 0.0 0.00 0.00 0.00 69 1021.7
20260906112932 16 313 0.0 0.0 0.00 0.00 0.00 67 1021.5
20260906112431 16 313 0.0 0.0 0.00 0.00 0.00 66 1021.5
20260906111931 16 313 0.0 0.0 0.00 0.00 0.00 65 1021.4
20260906111430 17 314 0.0 0.0 0.00 0.00 0.00 64 1021.4
20260906110931 17 314 0.0 0.0 0.00 0.00 0.00 64 1021.3
20260906110432 17 312 0.0 0.0 0.00 0.00 0.00 63 1021.2
20260906105931 17 312 0.0 0.0 0.00 0.00 0.00 63 1021.0
20260906105432 17 312 0.0 0.0 0.00 0.00 0.00 64 1020.9
20260906104930 17 312 0.0 0.0 0.00 0.00 0.00 63 1020.9
20260906104430 17 312 0.0 0.0 0.00 0.00 0.00 64 1021.0
20260906103929 17 312 0.0 0.0 0.00 0.00 0.00 65 1021.0
20260906103429 17 312 0.0 0.0 0.00 0.00 0.00 64 1020.9
20260906102930 17 312 0.0 0.0 0.00 0.00 0.00 65 1020.9
20260906102429 17 312 0.0 0.0 0.00 0.00 0.00 65 1020.9
20260906101929 17 312 0.0 0.0 0.00 0.00 0.00 64 1021.0
20260906101427 17 312 0.0 0.0 0.00 0.00 0.00 63 1021.0
20260906100925 17 312 0.0 0.0 0.00 0.00 0.00 63 1020.8
20260906100425 17 312 0.0 0.0 0.00 0.00 0.00 64 1020.8
20260906095924 17 312 0.0 0.0 0.00 0.00 0.00 65 1020.8
20260906095426 17 312 0.0 0.0 0.00 0.00 0.00 66 1020.8
20260906094928 17 313 0.0 0.0 0.00 0.00 0.00 67 1020.9
20260906094923 17 313 0.0 0.0 0.00 0.00 0.00 66 1020.9
20260906093924 16 298 0.0 0.0 0.00 0.00 0.00 67 1020.9
20260906093424 16 298 0.0 0.0 0.00 0.00 0.00 67 1020.9
20260906092922 16 298 0.0 0.0 0.00 0.00 0.00 66 1020.9
20260906092428 17 298 0.0 0.0 0.00 0.00 0.00 65 1020.8
20260906092423 17 298 0.0 0.0 0.00 0.00 0.00 65 1020.8
20260906091424 17 298 0.0 0.0 0.00 0.00 0.00 65 1020.8
20260906090923 17 298 0.0 0.0 0.00 0.00 0.00 64 1020.8
20260906090424 17 298 0.0 0.0 0.00 0.00 0.00 64 1020.8
20260906085924 17 298 0.0 0.0 0.00 0.00 0.00 63 1020.7
20260906085423 17 298 0.0 0.0 0.00 0.00 0.00 63 1020.7
20260906084924 17 298 0.0 0.0 0.00 0.00 0.00 62 1020.7
20260906084423 17 298 0.0 0.0 0.00 0.00 0.00 62 1020.6
20260906083923 18 298 0.0 0.0 0.00 0.00 0.00 62 1020.7
20260906083424 18 298 0.0 0.0 0.00 0.00 0.00 61 1020.6
20260906082928 18 298 0.0 0.0 0.00 0.00 0.00 60 1020.6
20260906082924 18 298 0.0 0.0 0.00 0.00 0.00 60 1020.6
20260906081923 18 298 0.0 0.0 0.00 0.00 0.00 60 1020.6
20260906081423 18 298 0.0 0.0 0.00 0.00 0.00 60 1020.7
20260906080928 18 298 0.0 0.0 0.00 0.00 0.00 61 1020.6
20260906080923 18 298 0.0 0.0 0.00 0.00 0.00 61 1020.7
20260906075921 18 298 0.0 0.0 0.00 0.00 0.00 62 1020.6
20260906075421 18 298 0.0 0.0 0.00 0.00 0.00 61 1020.4
20260906074919 18 298 0.0 0.0 0.00 0.00 0.00 61 1020.6
20260906074417 18 298 0.0 0.0 0.00 0.00 0.00 61 1020.4
20260906073924 18 298 0.0 0.0 0.00 0.00 0.00 60 1020.4
20260906073918 18 298 0.0 0.0 0.00 0.00 0.00 60 1020.4
20260906072916 18 298 0.0 0.0 0.00 0.00 0.00 60 1020.3
20260906072419 19 298 0.0 0.0 0.00 0.00 0.00 58 1020.3
20260906072414 18 298 0.0 0.0 0.00 0.00 0.00 59 1020.3
20260906071416 19 298 0.0 0.0 0.00 0.00 0.00 58 1020.3
20260906071410 19 298 0.0 0.0 0.00 0.00 0.00 58 1020.4
20260906070909 19 298 0.0 0.0 0.00 0.00 0.00 58 1020.3
20260906065915 19 298 0.0 0.0 0.00 0.00 0.00 58 1020.3
20260906065908 19 298 0.0 0.0 0.00 0.00 0.00 58 1020.3
20260906064908 20 298 0.0 0.0 0.00 0.00 0.00 57 1020.3
20260906064407 20 298 0.0 0.0 0.00 0.00 0.00 57 1020.4
20260906063906 20 298 0.0 0.0 0.00 0.00 0.00 56 1020.6
20260906063404 20 298 0.0 0.0 0.00 0.00 0.00 55 1020.6
20260906062905 21 298 0.0 0.0 0.00 0.00 0.00 53 1020.4
20260906062405 21 298 0.0 0.0 0.00 0.00 0.00 52 1020.6
20260906061905 21 306 0.0 0.0 0.00 0.00 0.00 51 1020.7
20260906061405 21 337 0.0 1.6 0.00 0.00 0.00 50 1020.8
20260906060901 21 337 0.0 1.6 0.00 0.00 0.00 50 1020.9
20260906060401 21 354 0.0 1.6 0.00 0.00 0.00 51 1021.0
20260906055857 21 122 0.0 1.6 0.00 0.00 0.00 53 1021.0
20260906055358 21 127 0.0 1.6 0.00 0.00 0.00 52 1021.0
20260906054858 21 89 0.0 1.6 0.00 0.00 0.00 51 1020.9
20260906054403 21 283 0.0 1.6 0.00 0.00 0.00 51 1020.7
20260906054357 21 278 0.0 1.6 0.00 0.00 0.00 51 1020.7
20260906053357 21 301 0.0 1.6 0.00 0.00 0.00 52 1020.8
20260906052858 21 302 0.0 3.2 0.00 0.00 0.00 52 1020.9
20260906052358 21 302 0.0 3.2 0.00 0.00 0.00 51 1020.9
20260906051857 22 288 0.0 1.6 0.00 0.00 0.00 50 1020.9
20260906051358 22 217 0.0 1.6 0.00 0.00 0.00 49 1020.9
20260906050854 23 285 0.0 3.2 0.00 0.00 0.00 47 1020.9
20260906050356 23 266 1.6 6.4 0.00 0.00 0.00 44 1020.8
20260906045851 23 284 1.6 6.4 0.00 0.00 0.00 44 1020.9
20260906045349 23 257 3.2 16.1 0.00 0.00 0.00 42 1021.2
20260906044848 24 221 3.2 16.1 0.00 0.00 0.00 41 1021.3
20260906044348 24 295 0.0 8.0 0.00 0.00 0.00 39 1021.3
20260906043850 24 313 0.0 1.6 0.00 0.00 0.00 38 1021.3
20260906043344 24 307 0.0 3.2 0.00 0.00 0.00 37 1021.4
20260906042845 24 318 1.6 4.8 0.00 0.00 0.00 36 1021.5
20260906042346 23 291 1.6 6.4 0.00 0.00 0.00 36 1021.5
20260906041841 23 302 1.6 6.4 0.00 0.00 0.00 37 1021.3
20260906041339 23 204 0.0 11.3 0.00 0.00 0.00 37 1020.9
20260906040840 23 146 0.0 11.3 0.00 0.00 0.00 37 1020.8
20260906040338 23 146 3.2 12.9 0.00 0.00 0.00 37 1020.8
20260906035837 23 143 3.2 12.9 0.00 0.00 0.00 38 1020.8
20260906035338 23 150 0.0 3.2 0.00 0.00 0.00 40 1020.8
20260906034835 23 345 0.0 1.6 0.00 0.00 0.00 38 1020.2
20260906034336 22 346 0.0 1.6 0.00 0.00 0.00 38 1020.0
20260906033834 23 345 0.0 0.0 0.00 0.00 0.00 39 1020.0
20260906033339 23 345 0.0 0.0 0.00 0.00 0.00 37 1019.7
20260906033335 23 345 0.0 0.0 0.00 0.00 0.00 37 1019.9
20260906032335 23 345 0.0 0.0 0.00 0.00 0.00 36 1019.7
20260906031839 23 345 0.0 1.6 0.00 0.00 0.00 36 1019.7
20260906031835 23 345 0.0 0.0 0.00 0.00 0.00 38 1019.7
20260906030838 23 345 0.0 0.0 0.00 0.00 0.00 36 1019.5
20260906030833 23 345 0.0 1.6 0.00 0.00 0.00 36 1019.6
20260906025830 23 345 0.0 1.6 0.00 0.00 0.00 37 1019.4
20260906025328 23 345 0.0 1.6 0.00 0.00 0.00 37 1019.3
20260906024829 23 344 0.0 0.0 0.00 0.00 0.00 37 1019.1
20260906024329 23 344 0.0 0.0 0.00 0.00 0.00 38 1019.0
20260906023827 23 344 0.0 0.0 0.00 0.00 0.00 36 1019.0
20260906023327 24 344 0.0 1.6 0.00 0.00 0.00 37 1019.0
20260906022826 24 344 0.0 1.6 0.00 0.00 0.00 36 1019.0
20260906022327 24 344 0.0 0.0 0.00 0.00 0.00 37 1019.0
20260906021827 25 344 0.0 0.0 0.00 0.00 0.00 35 1019.0
20260906021325 25 344 0.0 0.0 0.00 0.00 0.00 34 1019.0
20260906020825 25 344 0.0 0.0 0.00 0.00 0.00 33 1019.0
20260906020324 25 344 0.0 0.0 0.00 0.00 0.00 32 1018.9
20260906015823 26 344 0.0 0.0 0.00 0.00 0.00 33 1018.9
20260906015328 26 344 0.0 0.0 0.00 0.00 0.00 31 1018.8
20260906015324 26 344 0.0 0.0 0.00 0.00 0.00 31 1018.9
20260906014328 26 345 0.0 1.6 0.00 0.00 0.00 30 1018.6
20260906014324 26 344 0.0 1.6 0.00 0.00 0.00 30 1018.7
20260906013329 27 349 0.0 0.0 0.00 0.00 0.00 30 1018.3
20260906013324 26 345 0.0 1.6 0.00 0.00 0.00 30 1018.6
20260906012926 27 348 0.0 0.0 0.00 0.00 0.00 31 1018.3
20260906011820 27 349 0.0 0.0 0.00 0.00 0.00 29 1018.2
20260906011320 27 349 0.0 0.0 0.00 0.00 0.00 28 1018.2
20260906010821 28 349 0.0 0.0 0.00 0.00 0.00 28 1018.2
20260906010318 28 349 0.0 0.0 0.00 0.00 0.00 28 1018.2
20260906005819 28 349 0.0 0.0 0.00 0.00 0.00 26 1018.2
20260906005318 29 349 0.0 0.0 0.00 0.00 0.00 25 1018.3
20260906004818 29 349 0.0 0.0 0.00 0.00 0.00 25 1018.3
20260906004318 30 349 0.0 0.0 0.00 0.00 0.00 24 1018.3
20260906003819 30 349 0.0 0.0 0.00 0.00 0.00 24 1018.3
20260906003325 30 310 0.0 0.0 0.00 0.00 0.00 23 1018.3
20260906003319 30 349 0.0 0.0 0.00 0.00 0.00 23 1018.3
20260906002938 30 310 0.0 0.0 0.00 0.00 0.00 23 1018.2
20260906001818 31 310 0.0 1.6 0.00 0.00 0.00 22 1018.2
20260906001319 31 311 0.0 3.2 0.00 0.00 0.00 22 1018.2
20260906000818 31 27 1.6 4.8 0.00 0.00 0.00 21 1018.2
20260906000318 32 340 1.6 4.8 0.00 0.00 0.00 21 1018.2
20260905235818 32 23 1.6 6.4 0.00 0.00 0.00 21 1018.1
20260905235316 32 354 3.2 6.4 0.00 0.00 0.00 21 1018.1
20260905234825 32 354 3.2 8.0 0.00 0.00 0.00 21 1018.1
20260905234819 32 8 3.2 8.0 0.00 0.00 0.00 20 1018.1
20260905234436 32 351 1.6 8.0 0.00 0.00 0.00 20 1018.0
20260905233324 32 6 0.0 4.8 0.00 0.00 0.00 20 1018.1
20260905233317 32 15 1.6 8.0 0.00 0.00 0.00 21 1018.1
20260905232317 32 39 1.6 6.4 0.00 0.00 0.00 20 1018.1
20260905231819 32 349 1.6 6.4 0.00 0.00 0.00 20 1018.1
20260905231316 32 335 3.2 8.0 0.00 0.00 0.00 20 1018.0
20260905230825 32 330 1.6 6.4 0.00 0.00 0.00 21 1018.1
20260905230819 32 4 3.2 8.0 0.00 0.00 0.00 20 1018.1
20260905225825 32 342 1.6 9.7 0.00 0.00 0.00 21 1018.0
20260905225819 32 7 3.2 6.4 0.00 0.00 0.00 21 1018.1
20260905224817 32 318 1.6 11.3 0.00 0.00 0.00 20 1018.1
20260905224316 32 2 3.2 11.3 0.00 0.00 0.00 20 1018.1
20260905223824 32 297 3.2 8.0 0.00 0.00 0.00 21 1018.1
20260905223818 32 356 3.2 8.0 0.00 0.00 0.00 21 1018.1